This is the latest recevied weather packets stored in our database for station/object SV2RCS-13. If no packets are shown the sender has not sent any weather packets the latest 10 day(s).
| Time | Temp. | Humidity | Pressure | Rain* | Wind** | Luminosity | Snow |
|---|---|---|---|---|---|---|---|
| 1788395359 | 23.33° C | 56% | 1015.6 hPa | - | - | - | - |
| 1788394758 | 23.89° C | 55% | 1015.5 hPa | - | - | - | - |
| 1788394160 | 23.33° C | 54% | 1015.6 hPa | - | - | - | - |
| 1788393559 | 23.33° C | 56% | 1015.4 hPa | - | - | - | - |
| 1788392958 | 23.89° C | 54% | 1015.4 hPa | - | - | - | - |
| 1788392358 | 23.89° C | 54% | 1015.2 hPa | - | - | - | - |
| 1788391759 | 24.44° C | 53% | 1015.4 hPa | - | - | - | - |
| 1788391182 | 24.44° C | 53% | 1015.4 hPa | - | - | - | - |
| 1788390559 | 23.89° C | 54% | 1015.4 hPa | - | - | - | - |
| 1788389962 | 23.89° C | 54% | 1015.3 hPa | - | - | - | - |
| 1788389358 | 24.44° C | 54% | 1015.4 hPa | - | - | - | - |
| 1788388759 | 24.44° C | 54% | 1015.3 hPa | - | - | - | - |
| 1788388158 | 24.44° C | 53% | 1015.2 hPa | - | - | - | - |
| 1788387558 | 24.44° C | 52% | 1015.1 hPa | - | - | - | - |
| 1788386958 | 24.44° C | 52% | 1015.1 hPa | - | - | - | - |
| 1788386358 | 24.44° C | 51% | 1014.8 hPa | - | - | - | - |
| 1788385759 | 23.89° C | 54% | 1015 hPa | - | - | - | - |
| 1788385158 | 24.44° C | 55% | 1015.3 hPa | - | - | - | - |
| 1788384558 | 23.89° C | 56% | 1015.1 hPa | - | - | - | - |
| 1788383958 | 24.44° C | 55% | 1014.8 hPa | - | - | - | - |
| 1788383362 | 23.89° C | 57% | 1014.7 hPa | - | - | - | - |
| 1788382758 | 23.89° C | 58% | 1014.5 hPa | - | - | - | - |
| 1788382158 | 23.89° C | 58% | 1014.5 hPa | - | - | - | - |
| 1788381559 | 23.89° C | 58% | 1014.4 hPa | - | - | - | - |
| 1788380959 | 23.89° C | 56% | 1014.5 hPa | - | - | - | - |
* Rain since midnight (hover to see other rain measurements)
** Current wind speed in m/s (hover to see current wind gust speed)